Preview of NWS' New Version of Forecast
This preview is not operational and should not be used for support decisions.

Regional Weather Roundup (RWR)

Issued by National Weather Service (NWS)

                            
000
ASUS44 KMEG 221900
RWRTN 
TENNESSEE HOURLY STATE WEATHER ROUNDUP
NATIONAL WEATHER SERVICE MEMPHIS TN
200 PM CDT WED MAY 22 2019

TNZ002-004-019-021-049-052-054-088>092-222000-
WEST TENNESSEE
  
CITY           SKY/WX    TMP DP  RH WIND       PRES   REMARKS
MEMPHIS INTL   PTSUNNY   86  74  67 S15G23    29.96S HX  94           
NWS MEMPHIS      N/A     86 N/A N/A MISG        N/A                   
JACKSON        FAIR      84  75  74 S9        29.98F HX  92           
DYERSBURG      CLOUDY    81  73  76 S8        29.98F                  
$$

TNZ008-025-027-028-033-062-065-066-222000-
NORTH MIDDLE TENNESSEE
  
CITY           SKY/WX    TMP DP  RH WIND       PRES   REMARKS
NASHVILLE      PTSUNNY   90  62  39 S17       30.02F HX  90           
CLARKSVILLE    PTSUNNY   83  68  60 SW10      29.99F                  
SMYRNA         FAIR      88  67  49 S8        30.03F HX  91           
CROSSVILLE     FAIR      83  58  42 SW8G22    30.13F                  
$$

TNZ061-075-076-078-094-096-097-222000-
SOUTH MIDDLE TENNESSEE
  
CITY           SKY/WX    TMP DP  RH WIND       PRES   REMARKS
$$

TNZ017-018-042-046-047-222000-
NORTHEAST TENNESSEE
  
CITY           SKY/WX    TMP DP  RH WIND       PRES   REMARKS
TRI CITIES     FAIR      87  63  44 S7        30.14F                  
$$

TNZ012-013-036-069-073-074-222000-
CENTRAL EAST TENNESSEE
  
CITY           SKY/WX    TMP DP  RH WIND       PRES   REMARKS
KNOXVILLE      FAIR      88  63  43 SW13G25   30.08F                  
OAK RIDGE      FAIR      90  61  37 VRB6      30.10F HX  90           
$$

TNZ083-085-099-222000-
SOUTHEAST TENNESSEE
  
CITY           SKY/WX    TMP DP  RH WIND       PRES   REMARKS
CHATTANOOGA    FAIR      89  61  38 S13       30.08F                  
$$

SKY/WX REPORTED AS FAIR MEANS FEW OR NO CLOUDS BELOW
12 THOUSAND FEET.